TIME,�g�[�{�C���[-���� [L],�t���O,�����{�C���[-���� [L],�t���O,�g�[�{�C���[-���� [MJ/h],�t���O,�����{�C���[-���� [MJ/h],�t���O
2004/5/1 0:00,0,0,0,0,0,0,0,0
2004/5/1 0:15,0,0,0,0,0,0,0,0
2004/5/1 0:30,0,0,0,0,0,0,0,0
2004/5/1 0:45,0,0,0,0,0,0,0,0
2004/5/1 1:00,0,0,0,0,0,0,0,0
2004/5/1 1:15,0,0,0,0,0,0,0,0
2004/5/1 1:30,0,0,0,0,0,0,0,0
2004/5/1 1:45,0,0,0,0,0,0,0,0
2004/5/1 2:00,0,0,0,0,0,0,0,0
2004/5/1 2:15,0,0,0,0,0,0,0,0
2004/5/1 2:30,0,0,0,0,0,0,0,0
2004/5/1 2:45,0,0,0,0,0,0,0,0
2004/5/1 3:00,0,0,0,0,0,0,0,0
2004/5/1 3:15,0,0,0,0,0,0,0,0
2004/5/1 3:30,0,0,0,0,0,0,0,0
2004/5/1 3:45,0,0,0,0,0,0,0,0
2004/5/1 4:00,0,0,0,0,0,0,0,0
2004/5/1 4:15,0,0,0,0,0,0,0,0
2004/5/1 4:30,0,0,0,0,0,0,0,0
2004/5/1 4:45,0,0,0,0,0,0,0,0
2004/5/1 5:00,0,0,0,0,0,0,0,0
2004/5/1 5:15,0,0,0,0,0,0,0,0
2004/5/1 5:30,0,0,0,0,0,0,0,0
2004/5/1 5:45,0,0,0,0,0,0,0,0
2004/5/1 6:00,0,0,0,0,0,0,0,0
2004/5/1 6:15,0,0,0.128317,0,0,0,18.8369356,0
2004/5/1 6:30,0,0,0,0,0,0,0,0
2004/5/1 6:45,0,0,0,0,0,0,0,0
2004/5/1 7:00,0,0,0,0,0,0,0,0
2004/5/1 7:15,0,0,0,0,0,0,0,0
2004/5/1 7:30,0,0,0,0,0,0,0,0
2004/5/1 7:45,0,0,0,0,0,0,0,0
2004/5/1 8:00,0,0,0.088872,0,0,0,13.0464096,0
2004/5/1 8:15,0,0,0.034132,0,0,0,5.0105776,0
2004/5/1 8:30,0,0,0,0,0,0,0,0
2004/5/1 8:45,0,0,0,0,0,0,0,0
2004/5/1 9:00,0,0,0,0,0,0,0,0
2004/5/1 9:15,0,0,0,0,0,0,0,0
2004/5/1 9:30,0,0,0,0,0,0,0,0
2004/5/1 9:45,0.000161,0,0.087262,0,0.0236348,0,12.8100616,0
2004/5/1 10:00,0,0,0,0,0,0,0,0
2004/5/1 10:15,0,0,0.137494,0,0,0,20.1841192,0
2004/5/1 10:30,0,0,0.019481,0,0,0,2.8598108,0
2004/5/1 10:45,0,0,0.509565,0,0,0,74.804142,0
2004/5/1 11:00,0,0,0.109319,0,0,0,16.0480292,0
2004/5/1 11:15,0,0,0,0,0,0,0,0
2004/5/1 11:30,0,0,0,0,0,0,0,0
2004/5/1 11:45,0,0,0,0,0,0,0,0
2004/5/1 12:00,0,0,0,0,0,0,0,0
2004/5/1 12:15,0,0,0,0,0,0,0,0
2004/5/1 12:30,0,0,0,0,0,0,0,0
2004/5/1 12:45,0,0,0,0,0,0,0,0
2004/5/1 13:00,0,0,0,0,0,0,0,0
2004/5/1 13:15,0,0,0,0,0,0,0,0
2004/5/1 13:30,0,0,0,0,0,0,0,0
2004/5/1 13:45,0,0,0,0,0,0,0,0
2004/5/1 14:00,0,0,0,0,0,0,0,0
2004/5/1 14:15,0,0,0,0,0,0,0,0
2004/5/1 14:30,0,0,0,0,0,0,0,0
2004/5/1 14:45,0,0,0,0,0,0,0,0
2004/5/1 15:00,0,0,0,0,0,0,0,0
2004/5/1 15:15,0,0,0,0,0,0,0,0
2004/5/1 15:30,0,0,0,0,0,0,0,0
2004/5/1 15:45,0,0,0,0,0,0,0,0
2004/5/1 16:00,0,0,0,0,0,0,0,0
2004/5/1 16:15,0,0,0,0,0,0,0,0
2004/5/1 16:30,0,0,0,0,0,0,0,0
2004/5/1 16:45,0,0,0,0,0,0,0,0
2004/5/1 17:00,0,0,0,0,0,0,0,0
2004/5/1 17:15,0,0,0,0,0,0,0,0
2004/5/1 17:30,0,0,0,0,0,0,0,0
2004/5/1 17:45,0,0,0,0,0,0,0,0
2004/5/1 18:00,0,0,0,0,0,0,0,0
2004/5/1 18:15,0,0,0,0,0,0,0,0
2004/5/1 18:30,0,0,0,0,0,0,0,0
2004/5/1 18:45,0,0,0,0,0,0,0,0
2004/5/1 19:00,0,0,0,0,0,0,0,0
2004/5/1 19:15,0,0,0,0,0,0,0,0
2004/5/1 19:30,0,0,0,0,0,0,0,0
2004/5/1 19:45,0,0,0,0,0,0,0,0
2004/5/1 20:00,0,0,0,0,0,0,0,0
2004/5/1 20:15,0,0,0,0,0,0,0,0
2004/5/1 20:30,0,0,0,0,0,0,0,0
2004/5/1 20:45,0,0,0,0,0,0,0,0
2004/5/1 21:00,0,0,0,0,0,0,0,0
2004/5/1 21:15,0,0,0,0,0,0,0,0
2004/5/1 21:30,0,0,0,0,0,0,0,0
2004/5/1 21:45,0,0,0,0,0,0,0,0
2004/5/1 22:00,0,0,0,0,0,0,0,0
2004/5/1 22:15,0,0,0,0,0,0,0,0
2004/5/1 22:30,0,0,0,0,0,0,0,0
2004/5/1 22:45,0,0,0,0,0,0,0,0
2004/5/1 23:00,0,0,0,0,0,0,0,0
2004/5/1 23:15,0,0,0,0,0,0,0,0
2004/5/1 23:30,0,0,0,0,0,0,0,0
2004/5/1 23:45,0,0,0,0,0,0,0,0
2004/5/2 0:00,0,0,0,0,0,0,0,0
2004/5/2 0:15,0,0,0,0,0,0,0,0
2004/5/2 0:30,0,0,0,0,0,0,0,0
2004/5/2 0:45,0,0,0,0,0,0,0,0
2004/5/2 1:00,0,0,0,0,0,0,0,0
2004/5/2 1:15,0,0,0,0,0,0,0,0
2004/5/2 1:30,0,0,0,0,0,0,0,0
2004/5/2 1:45,0,0,0,0,0,0,0,0
2004/5/2 2:00,0,0,0,0,0,0,0,0
2004/5/2 2:15,0,0,0,0,0,0,0,0
2004/5/2 2:30,0,0,0,0,0,0,0,0
2004/5/2 2:45,0,0,0,0,0,0,0,0
2004/5/2 3:00,0,0,0,0,0,0,0,0
2004/5/2 3:15,0,0,0,0,0,0,0,0
2004/5/2 3:30,0,0,0,0,0,0,0,0
2004/5/2 3:45,0,0,0,0,0,0,0,0
2004/5/2 4:00,0,0,0,0,0,0,0,0
2004/5/2 4:15,0,0,0,0,0,0,0,0
2004/5/2 4:30,0,0,0,0,0,0,0,0
2004/5/2 4:45,0,0,0,0,0,0,0,0
2004/5/2 5:00,0,0,0,0,0,0,0,0
2004/5/2 5:15,0,0,0,0,0,0,0,0
2004/5/2 5:30,0,0,0,0,0,0,0,0
2004/5/2 5:45,0,0,0,0,0,0,0,0
2004/5/2 6:00,0,0,0,0,0,0,0,0
2004/5/2 6:15,0,0,0,0,0,0,0,0
2004/5/2 6:30,0,0,0,0,0,0,0,0
2004/5/2 6:45,0.000161,0,0.217994,0,0.0236348,0,32.0015192,0
2004/5/2 7:00,0,0,0,0,0,0,0,0
2004/5/2 7:15,0,0,0,0,0,0,0,0
2004/5/2 7:30,0.000161,0,0.109158,0,0.0236348,0,16.0243944,0
2004/5/2 7:45,0,0,0.488635,0,0,0,71.731618,0
2004/5/2 8:00,0,0,0.035581,0,0,0,5.2232908,0
2004/5/2 8:15,0,0,0.21896,0,0,0,32.143328,0
2004/5/2 8:30,0,0,0.179354,0,0,0,26.3291672,0
2004/5/2 8:45,0,0,0.11914,0,0,0,17.489752,0
2004/5/2 9:00,0,0,0.050232,0,0,0,7.3740576,0
2004/5/2 9:15,0,0,0.092414,0,0,0,13.5663752,0
2004/5/2 9:30,0,0,0,0,0,0,0,0
2004/5/2 9:45,0,0,0,0,0,0,0,0
2004/5/2 10:00,0,0,0,0,0,0,0,0
2004/5/2 10:15,0,0,0,0,0,0,0,0
2004/5/2 10:30,0,0,0,0,0,0,0,0
2004/5/2 10:45,0,0,0,0,0,0,0,0
2004/5/2 11:00,0,0,0,0,0,0,0,0
2004/5/2 11:15,0,0,0,0,0,0,0,0
2004/5/2 11:30,0,0,0,0,0,0,0,0
2004/5/2 11:45,0,0,0,0,0,0,0,0
2004/5/2 12:00,0,0,0,0,0,0,0,0
2004/5/2 12:15,0,0,0,0,0,0,0,0
2004/5/2 12:30,0,0,0,0,0,0,0,0
2004/5/2 12:45,0,0,0,0,0,0,0,0
2004/5/2 13:00,0,0,0,0,0,0,0,0
2004/5/2 13:15,0,0,0,0,0,0,0,0
2004/5/2 13:30,0,0,0,0,0,0,0,0
2004/5/2 13:45,0,0,0,0,0,0,0,0
2004/5/2 14:00,0,0,0,0,0,0,0,0
2004/5/2 14:15,0,0,0,0,0,0,0,0
2004/5/2 14:30,0,0,0,0,0,0,0,0
2004/5/2 14:45,0,0,0,0,0,0,0,0
2004/5/2 15:00,0,0,0,0,0,0,0,0
2004/5/2 15:15,0,0,0,0,0,0,0,0
2004/5/2 15:30,0,0,0,0,0,0,0,0
2004/5/2 15:45,0,0,0,0,0,0,0,0
2004/5/2 16:00,0,0,0,0,0,0,0,0
2004/5/2 16:15,0,0,0,0,0,0,0,0
2004/5/2 16:30,0,0,0,0,0,0,0,0
2004/5/2 16:45,0,0,0,0,0,0,0,0
2004/5/2 17:00,0,0,0,0,0,0,0,0
2004/5/2 17:15,0,0,0,0,0,0,0,0
2004/5/2 17:30,0,0,0,0,0,0,0,0
2004/5/2 17:45,0,0,0,0,0,0,0,0
2004/5/2 18:00,0,0,0,0,0,0,0,0
2004/5/2 18:15,0,0,0,0,0,0,0,0
2004/5/2 18:30,0,0,0,0,0,0,0,0
2004/5/2 18:45,0,0,0,0,0,0,0,0
2004/5/2 19:00,0,0,0,0,0,0,0,0
2004/5/2 19:15,0,0,0,0,0,0,0,0
2004/5/2 19:30,0,0,0,0,0,0,0,0
2004/5/2 19:45,0,0,0,0,0,0,0,0
2004/5/2 20:00,0,0,0,0,0,0,0,0
2004/5/2 20:15,0,0,0,0,0,0,0,0
2004/5/2 20:30,0,0,0,0,0,0,0,0
2004/5/2 20:45,0,0,0,0,0,0,0,0
2004/5/2 21:00,0,0,0,0,0,0,0,0
2004/5/2 21:15,0,0,0,0,0,0,0,0
2004/5/2 21:30,0,0,0,0,0,0,0,0
2004/5/2 21:45,0,0,0,0,0,0,0,0
2004/5/2 22:00,0,0,0,0,0,0,0,0
2004/5/2 22:15,0,0,0,0,0,0,0,0
2004/5/2 22:30,0,0,0,0,0,0,0,0
2004/5/2 22:45,0,0,0,0,0,0,0,0
2004/5/2 23:00,0,0,0,0,0,0,0,0
2004/5/2 23:15,0,0,0,0,0,0,0,0
2004/5/2 23:30,0,0,0,0,0,0,0,0
2004/5/2 23:45,0,0,0,0,0,0,0,0
2004/5/3 0:00,0,0,0,0,0,0,0,0
2004/5/3 0:15,0,0,0,0,0,0,0,0
2004/5/3 0:30,0,0,0,0,0,0,0,0
2004/5/3 0:45,0,0,0,0,0,0,0,0
2004/5/3 1:00,0,0,0,0,0,0,0,0
2004/5/3 1:15,0,0,0,0,0,0,0,0
2004/5/3 1:30,0,0,0,0,0,0,0,0
2004/5/3 1:45,0,0,0,0,0,0,0,0
2004/5/3 2:00,0,0,0,0,0,0,0,0
2004/5/3 2:15,0,0,0,0,0,0,0,0
2004/5/3 2:30,0,0,0,0,0,0,0,0
2004/5/3 2:45,0,0,0,0,0,0,0,0
2004/5/3 3:00,0,0,0,0,0,0,0,0
2004/5/3 3:15,0,0,0,0,0,0,0,0
2004/5/3 3:30,0,0,0,0,0,0,0,0
2004/5/3 3:45,0,0,0,0,0,0,0,0
2004/5/3 4:00,0,0,0,0,0,0,0,0
2004/5/3 4:15,0,0,0,0,0,0,0,0
2004/5/3 4:30,0,0,0,0,0,0,0,0
2004/5/3 4:45,0,0,0,0,0,0,0,0
2004/5/3 5:00,0,0,0,0,0,0,0,0
2004/5/3 5:15,0,0,0,0,0,0,0,0
2004/5/3 5:30,0,0,0,0,0,0,0,0
2004/5/3 5:45,0,0,0,0,0,0,0,0
2004/5/3 6:00,0,0,0,0,0,0,0,0
2004/5/3 6:15,0,0,0,0,0,0,0,0
2004/5/3 6:30,0,0,0,0,0,0,0,0
2004/5/3 6:45,0,0,0,0,0,0,0,0
2004/5/3 7:00,0,0,0,0,0,0,0,0
2004/5/3 7:15,0,0,0,0,0,0,0,0
2004/5/3 7:30,0,0,0.189658,0,0,0,27.8417944,0
2004/5/3 7:45,0,0,0,0,0,0,0,0
2004/5/3 8:00,0,0,0,0,0,0,0,0
2004/5/3 8:15,0.000161,0,0.047656,0,0.0236348,0,6.9959008,0
2004/5/3 8:30,0,0,0.02254,0,0,0,3.308872,0
2004/5/3 8:45,0,0,0.019803,0,0,0,2.9070804,0
2004/5/3 9:00,0,0,0.019159,0,0,0,2.8125412,0
2004/5/3 9:15,0,0,0,0,0,0,0,0
2004/5/3 9:30,0,0,0.100142,0,0,0,14.7008456,0
2004/5/3 9:45,0,0,0,0,0,0,0,0
2004/5/3 10:00,0,0,0.057638,0,0,0,8.4612584,0
2004/5/3 10:15,0,0,0,0,0,0,0,0
2004/5/3 10:30,0,0,0,0,0,0,0,0
2004/5/3 10:45,0,0,0,0,0,0,0,0
2004/5/3 11:00,0,0,0,0,0,0,0,0
2004/5/3 11:15,0,0,0,0,0,0,0,0
2004/5/3 11:30,0,0,0,0,0,0,0,0
2004/5/3 11:45,0,0,0,0,0,0,0,0
2004/5/3 12:00,0,0,0,0,0,0,0,0
2004/5/3 12:15,0,0,0,0,0,0,0,0
2004/5/3 12:30,0,0,0,0,0,0,0,0
2004/5/3 12:45,0,0,0,0,0,0,0,0
2004/5/3 13:00,0,0,0,0,0,0,0,0
2004/5/3 13:15,0,0,0,0,0,0,0,0
2004/5/3 13:30,0,0,0,0,0,0,0,0
2004/5/3 13:45,0,0,0,0,0,0,0,0
2004/5/3 14:00,0,0,0,0,0,0,0,0
2004/5/3 14:15,0,0,0,0,0,0,0,0
2004/5/3 14:30,0,0,0,0,0,0,0,0
2004/5/3 14:45,0,0,0,0,0,0,0,0
2004/5/3 15:00,0,0,0,0,0,0,0,0
2004/5/3 15:15,0,0,0,0,0,0,0,0
2004/5/3 15:30,0,0,0,0,0,0,0,0
2004/5/3 15:45,0,0,0,0,0,0,0,0
2004/5/3 16:00,0,0,0,0,0,0,0,0
2004/5/3 16:15,0,0,0,0,0,0,0,0
2004/5/3 16:30,0,0,0,0,0,0,0,0
2004/5/3 16:45,0,0,0,0,0,0,0,0
2004/5/3 17:00,0,0,0,0,0,0,0,0
2004/5/3 17:15,0,0,0,0,0,0,0,0
2004/5/3 17:30,0,0,0,0,0,0,0,0
2004/5/3 17:45,0,0,0,0,0,0,0,0
2004/5/3 18:00,0,0,0,0,0,0,0,0
2004/5/3 18:15,0,0,0,0,0,0,0,0
2004/5/3 18:30,0,0,0,0,0,0,0,0
2004/5/3 18:45,0,0,0,0,0,0,0,0
2004/5/3 19:00,0,0,0,0,0,0,0,0
2004/5/3 19:15,0,0,0,0,0,0,0,0
2004/5/3 19:30,0,0,0,0,0,0,0,0
2004/5/3 19:45,0,0,0,0,0,0,0,0
2004/5/3 20:00,0,0,0,0,0,0,0,0
2004/5/3 20:15,0,0,0,0,0,0,0,0
2004/5/3 20:30,0,0,0,0,0,0,0,0
2004/5/3 20:45,0,0,0,0,0,0,0,0
2004/5/3 21:00,0,0,0,0,0,0,0,0
2004/5/3 21:15,0,0,0,0,0,0,0,0
2004/5/3 21:30,0,0,0,0,0,0,0,0
2004/5/3 21:45,0,0,0.386883,0,0,0,56.7944244,0
2004/5/3 22:00,0,0,0.432768,0,0,0,63.5303424,0
2004/5/3 22:15,0,0,0.022379,0,0,0,3.2852372,0
2004/5/3 22:30,0,0,0.190141,0,0,0,27.9126988,0
2004/5/3 22:45,0,0,0.063273,0,0,0,9.2884764,0
2004/5/3 23:00,0,0,0,0,0,0,0,0
2004/5/3 23:15,0,0,0,0,0,0,0,0
2004/5/3 23:30,0,0,0,0,0,0,0,0
2004/5/3 23:45,0,0,0.175168,0,0,0,25.7146624,0
2004/5/4 0:00,0,0,0,0,0,0,0,0
2004/5/4 0:15,0,0,0,0,0,0,0,0
2004/5/4 0:30,0,0,0.141841,0,0,0,20.8222588,0
2004/5/4 0:45,0,0,0.017066,0,0,0,2.5052888,0
2004/5/4 1:00,0,0,0,0,0,0,0,0
2004/5/4 1:15,0,0,0,0,0,0,0,0
2004/5/4 1:30,0,0,0,0,0,0,0,0
2004/5/4 1:45,0,0,0,0,0,0,0,0
2004/5/4 2:00,0,0,0,0,0,0,0,0
2004/5/4 2:15,0,0,0,0,0,0,0,0
2004/5/4 2:30,0,0,0,0,0,0,0,0
2004/5/4 2:45,0,0,0,0,0,0,0,0
2004/5/4 3:00,0,0,0,0,0,0,0,0
2004/5/4 3:15,0,0,0,0,0,0,0,0
2004/5/4 3:30,0,0,0,0,0,0,0,0
2004/5/4 3:45,0,0,0,0,0,0,0,0
2004/5/4 4:00,0,0,0,0,0,0,0,0
2004/5/4 4:15,0,0,0,0,0,0,0,0
2004/5/4 4:30,0,0,0,0,0,0,0,0
2004/5/4 4:45,0,0,0,0,0,0,0,0
2004/5/4 5:00,0,0,0,0,0,0,0,0
2004/5/4 5:15,0,0,0,0,0,0,0,0
2004/5/4 5:30,0,0,0,0,0,0,0,0
2004/5/4 5:45,0,0,0,0,0,0,0,0
2004/5/4 6:00,0,0,0,0,0,0,0,0
2004/5/4 6:15,0,0,0,0,0,0,0,0
2004/5/4 6:30,0,0,0,0,0,0,0,0
2004/5/4 6:45,0,0,0,0,0,0,0,0
2004/5/4 7:00,0,0,0,0,0,0,0,0
2004/5/4 7:15,0,0,0,0,0,0,0,0
2004/5/4 7:30,0,0,0,0,0,0,0,0
2004/5/4 7:45,0,0,0,0,0,0,0,0
2004/5/4 8:00,0,0,0,0,0,0,0,0
2004/5/4 8:15,0,0,0,0,0,0,0,0
2004/5/4 8:30,0.000161,0,0.180964,0,0.0236348,0,26.5655152,0
2004/5/4 8:45,0,0,0,0,0,0,0,0
2004/5/4 9:00,0,0,0,0,0,0,0,0
2004/5/4 9:15,0,0,0,0,0,0,0,0
2004/5/4 9:30,0,0,0,0,0,0,0,0
2004/5/4 9:45,0,0,0,0,0,0,0,0
2004/5/4 10:00,0,0,0,0,0,0,0,0
2004/5/4 10:15,0,0,0,0,0,0,0,0
2004/5/4 10:30,0,0,0,0,0,0,0,0
2004/5/4 10:45,0,0,0,0,0,0,0,0
2004/5/4 11:00,0,0,0,0,0,0,0,0
2004/5/4 11:15,0,0,0,0,0,0,0,0
2004/5/4 11:30,0,0,0,0,0,0,0,0
2004/5/4 11:45,0,0,0,0,0,0,0,0
2004/5/4 12:00,0,0,0,0,0,0,0,0
2004/5/4 12:15,0,0,0.12719,0,0,0,18.671492,0
2004/5/4 12:30,0,0,0,0,0,0,0,0
2004/5/4 12:45,0,0,0,0,0,0,0,0
2004/5/4 13:00,0,0,0,0,0,0,0,0
2004/5/4 13:15,0,0,0,0,0,0,0,0
2004/5/4 13:30,0,0,0,0,0,0,0,0
2004/5/4 13:45,0,0,0,0,0,0,0,0
2004/5/4 14:00,0,0,0,0,0,0,0,0
2004/5/4 14:15,0,0,0,0,0,0,0,0
2004/5/4 14:30,0,0,0,0,0,0,0,0
2004/5/4 14:45,0,0,0,0,0,0,0,0
2004/5/4 15:00,0,0,0,0,0,0,0,0
2004/5/4 15:15,0,0,0,0,0,0,0,0
2004/5/4 15:30,0,0,0,0,0,0,0,0
2004/5/4 15:45,0,0,0,0,0,0,0,0
2004/5/4 16:00,0,0,0,0,0,0,0,0
2004/5/4 16:15,0,0,0,0,0,0,0,0
2004/5/4 16:30,0,0,0,0,0,0,0,0
2004/5/4 16:45,0,0,0,0,0,0,0,0
2004/5/4 17:00,0,0,0,0,0,0,0,0
2004/5/4 17:15,0,0,0,0,0,0,0,0
2004/5/4 17:30,0,0,0,0,0,0,0,0
2004/5/4 17:45,0,0,0,0,0,0,0,0
2004/5/4 18:00,0,0,0,0,0,0,0,0
2004/5/4 18:15,0,0,0,0,0,0,0,0
2004/5/4 18:30,0,0,0,0,0,0,0,0
2004/5/4 18:45,0,0,0,0,0,0,0,0
2004/5/4 19:00,0,0,0,0,0,0,0,0
2004/5/4 19:15,0,0,0,0,0,0,0,0
2004/5/4 19:30,0,0,0,0,0,0,0,0
2004/5/4 19:45,0,0,0,0,0,0,0,0
2004/5/4 20:00,0,0,0,0,0,0,0,0
2004/5/4 20:15,0,0,0,0,0,0,0,0
2004/5/4 20:30,0,0,0,0,0,0,0,0
2004/5/4 20:45,0,0,0,0,0,0,0,0
2004/5/4 21:00,0,0,0,0,0,0,0,0
2004/5/4 21:15,0,0,0,0,0,0,0,0
2004/5/4 21:30,0,0,0,0,0,0,0,0
2004/5/4 21:45,0,0,0,0,0,0,0,0
2004/5/4 22:00,0,0,0.266616,0,0,0,39.1392288,0
2004/5/4 22:15,0,0,0.447258,0,0,0,65.6574744,0
2004/5/4 22:30,0,0,0.005957,0,0,0,0.8744876,0
2004/5/4 22:45,0,0,0.147959,0,0,0,21.7203812,0
2004/5/4 23:00,0,0,0.061824,0,0,0,9.0757632,0
2004/5/4 23:15,0,0,0,0,0,0,0,0
2004/5/4 23:30,0,0,0.00322,0,0,0,0.472696,0
2004/5/4 23:45,0,0,0.108514,0,0,0,15.9298552,0
2004/5/5 0:00,0,0,0.187887,0,0,0,27.5818116,0
2004/5/5 0:15,0,0,0,0,0,0,0,0
2004/5/5 0:30,0,0,0,0,0,0,0,0
2004/5/5 0:45,0,0,0,0,0,0,0,0
2004/5/5 1:00,0,0,0,0,0,0,0,0
2004/5/5 1:15,0,0,0,0,0,0,0,0
2004/5/5 1:30,0,0,0,0,0,0,0,0
2004/5/5 1:45,0,0,0,0,0,0,0,0
2004/5/5 2:00,0,0,0,0,0,0,0,0
2004/5/5 2:15,0,0,0,0,0,0,0,0
2004/5/5 2:30,0,0,0,0,0,0,0,0
2004/5/5 2:45,0,0,0,0,0,0,0,0
2004/5/5 3:00,0,0,0,0,0,0,0,0
2004/5/5 3:15,0,0,0,0,0,0,0,0
2004/5/5 3:30,0,0,0,0,0,0,0,0
2004/5/5 3:45,0,0,0,0,0,0,0,0
2004/5/5 4:00,0,0,0,0,0,0,0,0
2004/5/5 4:15,0,0,0,0,0,0,0,0
2004/5/5 4:30,0,0,0,0,0,0,0,0
2004/5/5 4:45,0,0,0,0,0,0,0,0
2004/5/5 5:00,0,0,0,0,0,0,0,0
2004/5/5 5:15,0,0,0,0,0,0,0,0
2004/5/5 5:30,0,0,0.180964,0,0,0,26.5655152,0
2004/5/5 5:45,0,0,0,0,0,0,0,0
2004/5/5 6:00,0,0,0,0,0,0,0,0
2004/5/5 6:15,0,0,0,0,0,0,0,0
2004/5/5 6:30,0,0,0,0,0,0,0,0
2004/5/5 6:45,0,0,0,0,0,0,0,0
2004/5/5 7:00,0,0,0,0,0,0,0,0
2004/5/5 7:15,0,0,0,0,0,0,0,0
2004/5/5 7:30,0,0,0,0,0,0,0,0
2004/5/5 7:45,0,0,0,0,0,0,0,0
2004/5/5 8:00,0,0,0,0,0,0,0,0
2004/5/5 8:15,0,0,0,0,0,0,0,0
2004/5/5 8:30,0,0,0,0,0,0,0,0
2004/5/5 8:45,0,0,0,0,0,0,0,0
2004/5/5 9:00,0,0,0,0,0,0,0,0
2004/5/5 9:15,0,0,0,0,0,0,0,0
2004/5/5 9:30,0,0,0,0,0,0,0,0
2004/5/5 9:45,0,0,0,0,0,0,0,0
2004/5/5 10:00,0,0,0,0,0,0,0,0
2004/5/5 10:15,0,0,0,0,0,0,0,0
2004/5/5 10:30,0,0,0,0,0,0,0,0
2004/5/5 10:45,0,0,0,0,0,0,0,0
2004/5/5 11:00,0,0,0,0,0,0,0,0
2004/5/5 11:15,0,0,0,0,0,0,0,0
2004/5/5 11:30,0,0,0,0,0,0,0,0
2004/5/5 11:45,0,0,0,0,0,0,0,0
2004/5/5 12:00,0,0,0,0,0,0,0,0
2004/5/5 12:15,0,0,0,0,0,0,0,0
2004/5/5 12:30,0,0,0,0,0,0,0,0
2004/5/5 12:45,0,0,0,0,0,0,0,0
2004/5/5 13:00,0,0,0,0,0,0,0,0
2004/5/5 13:15,0,0,0,0,0,0,0,0
2004/5/5 13:30,0,0,0,0,0,0,0,0
2004/5/5 13:45,0,0,0,0,0,0,0,0
2004/5/5 14:00,0,0,0,0,0,0,0,0
2004/5/5 14:15,0,0,0,0,0,0,0,0
2004/5/5 14:30,0,0,0,0,0,0,0,0
2004/5/5 14:45,0,0,0,0,0,0,0,0
2004/5/5 15:00,0,0,0,0,0,0,0,0
2004/5/5 15:15,0,0,0,0,0,0,0,0
2004/5/5 15:30,0,0,0,0,0,0,0,0
2004/5/5 15:45,0,0,0,0,0,0,0,0
2004/5/5 16:00,0,0,0,0,0,0,0,0
2004/5/5 16:15,0,0,0,0,0,0,0,0
2004/5/5 16:30,0,0,0,0,0,0,0,0
2004/5/5 16:45,0,0,0,0,0,0,0,0
2004/5/5 17:00,0,0,0,0,0,0,0,0
2004/5/5 17:15,0,0,0,0,0,0,0,0
2004/5/5 17:30,0,0,0,0,0,0,0,0
2004/5/5 17:45,0,0,0,0,0,0,0,0
2004/5/5 18:00,0,0,0,0,0,0,0,0
2004/5/5 18:15,0,0,0,0,0,0,0,0
2004/5/5 18:30,0,0,0,0,0,0,0,0
2004/5/5 18:45,0,0,0,0,0,0,0,0
2004/5/5 19:00,0,0,0,0,0,0,0,0
2004/5/5 19:15,0,0,0,0,0,0,0,0
2004/5/5 19:30,0,0,0,0,0,0,0,0
2004/5/5 19:45,0,0,0,0,0,0,0,0
2004/5/5 20:00,0,0,0,0,0,0,0,0
2004/5/5 20:15,0,0,0,0,0,0,0,0
2004/5/5 20:30,0,0,0,0,0,0,0,0
2004/5/5 20:45,0,0,0,0,0,0,0,0
2004/5/5 21:00,0,0,0,0,0,0,0,0
2004/5/5 21:15,0,0,0.310569,0,0,0,45.5915292,0
2004/5/5 21:30,0,0,0.382858,0,0,0,56.2035544,0
2004/5/5 21:45,0,0,0.017388,0,0,0,2.5525584,0
2004/5/5 22:00,0,0,0.090482,0,0,0,13.2827576,0
2004/5/5 22:15,0,0,0.061824,0,0,0,9.0757632,0
2004/5/5 22:30,0,0,0,0,0,0,0,0
2004/5/5 22:45,0,0,0,0,0,0,0,0
2004/5/5 23:00,0,0,0,0,0,0,0,0
2004/5/5 23:15,0,0,0,0,0,0,0,0
2004/5/5 23:30,0,0,0,0,0,0,0,0
2004/5/5 23:45,0,0,0,0,0,0,0,0
2004/5/6 0:00,0,0,0,0,0,0,0,0
2004/5/6 0:15,0,0,0,0,0,0,0,0
2004/5/6 0:30,0,0,0,0,0,0,0,0
2004/5/6 0:45,0,0,0,0,0,0,0,0
2004/5/6 1:00,0,0,0,0,0,0,0,0
2004/5/6 1:15,0,0,0,0,0,0,0,0
2004/5/6 1:30,0,0,0,0,0,0,0,0
2004/5/6 1:45,0,0,0.200284,0,0,0,29.4016912,0
2004/5/6 2:00,0,0,0,0,0,0,0,0
2004/5/6 2:15,0,0,0,0,0,0,0,0
2004/5/6 2:30,0,0,0,0,0,0,0,0
2004/5/6 2:45,0,0,0,0,0,0,0,0
2004/5/6 3:00,0,0,0,0,0,0,0,0
2004/5/6 3:15,0,0,0,0,0,0,0,0
2004/5/6 3:30,0,0,0,0,0,0,0,0
2004/5/6 3:45,0,0,0,0,0,0,0,0
2004/5/6 4:00,0,0,0,0,0,0,0,0
2004/5/6 4:15,0,0,0,0,0,0,0,0
2004/5/6 4:30,0,0,0,0,0,0,0,0
2004/5/6 4:45,0,0,0,0,0,0,0,0
2004/5/6 5:00,0,0,0,0,0,0,0,0
2004/5/6 5:15,0,0,0,0,0,0,0,0
2004/5/6 5:30,0,0,0,0,0,0,0,0
2004/5/6 5:45,0,0,0,0,0,0,0,0
2004/5/6 6:00,0,0,0,0,0,0,0,0
2004/5/6 6:15,0,0,0.079534,0,0,0,11.6755912,0
2004/5/6 6:30,0,0,0.136367,0,0,0,20.0186756,0
2004/5/6 6:45,0,0,0,0,0,0,0,0
2004/5/6 7:00,0,0,0,0,0,0,0,0
2004/5/6 7:15,0,0,0,0,0,0,0,0
2004/5/6 7:30,0,0,0.042826,0,0,0,6.2868568,0
2004/5/6 7:45,0,0,0,0,0,0,0,0
2004/5/6 8:00,0,0,0,0,0,0,0,0
2004/5/6 8:15,0,0,0,0,0,0,0,0
2004/5/6 8:30,0,0,0,0,0,0,0,0
2004/5/6 8:45,0,0,0,0,0,0,0,0
2004/5/6 9:00,0,0,0,0,0,0,0,0
2004/5/6 9:15,0,0,0,0,0,0,0,0
2004/5/6 9:30,0,0,0,0,0,0,0,0
2004/5/6 9:45,0,0,0,0,0,0,0,0
2004/5/6 10:00,0,0,0,0,0,0,0,0
2004/5/6 10:15,0,0,0,0,0,0,0,0
2004/5/6 10:30,0,0,0,0,0,0,0,0
2004/5/6 10:45,0,0,0,0,0,0,0,0
2004/5/6 11:00,0,0,0,0,0,0,0,0
2004/5/6 11:15,0,0,0,0,0,0,0,0
2004/5/6 11:30,0,0,0,0,0,0,0,0
2004/5/6 11:45,0,0,0,0,0,0,0,0
2004/5/6 12:00,0,0,0,0,0,0,0,0
2004/5/6 12:15,0,0,0,0,0,0,0,0
2004/5/6 12:30,0,0,0,0,0,0,0,0
2004/5/6 12:45,0,0,0,0,0,0,0,0
2004/5/6 13:00,0,0,0,0,0,0,0,0
2004/5/6 13:15,0,0,0,0,0,0,0,0
2004/5/6 13:30,0,0,0,0,0,0,0,0
2004/5/6 13:45,0,0,0,0,0,0,0,0
2004/5/6 14:00,0,0,0,0,0,0,0,0
2004/5/6 14:15,0,0,0,0,0,0,0,0
2004/5/6 14:30,0,0,0,0,0,0,0,0
2004/5/6 14:45,0,0,0,0,0,0,0,0
2004/5/6 15:00,0,0,0,0,0,0,0,0
2004/5/6 15:15,0,0,0,0,0,0,0,0
2004/5/6 15:30,0,0,0,0,0,0,0,0
2004/5/6 15:45,0,0,0,0,0,0,0,0
2004/5/6 16:00,0,0,0,0,0,0,0,0
2004/5/6 16:15,0,0,0,0,0,0,0,0
2004/5/6 16:30,0,0,0,0,0,0,0,0
2004/5/6 16:45,0,0,0,0,0,0,0,0
2004/5/6 17:00,0,0,0,0,0,0,0,0
2004/5/6 17:15,0,0,0,0,0,0,0,0
2004/5/6 17:30,0,0,0,0,0,0,0,0
2004/5/6 17:45,0,0,0,0,0,0,0,0
2004/5/6 18:00,0,0,0,0,0,0,0,0
2004/5/6 18:15,0,0,0,0,0,0,0,0
2004/5/6 18:30,0,0,0,0,0,0,0,0
2004/5/6 18:45,0,0,0,0,0,0,0,0
2004/5/6 19:00,0,0,0,0,0,0,0,0
2004/5/6 19:15,0,0,0,0,0,0,0,0
2004/5/6 19:30,0,0,0,0,0,0,0,0
2004/5/6 19:45,0,0,0,0,0,0,0,0
2004/5/6 20:00,0,0,0,0,0,0,0,0
2004/5/6 20:15,0,0,0,0,0,0,0,0
2004/5/6 20:30,0,0,0.248101,0,0,0,36.4212268,0
2004/5/6 20:45,0,0,0.434861,0,0,0,63.8375948,0
2004/5/6 21:00,0,0,0.023184,0,0,0,3.4034112,0
2004/5/6 21:15,0,0,0,0,0,0,0,0
2004/5/6 21:30,0,0,0.016261,0,0,0,2.3871148,0
2004/5/6 21:45,0,0,0.017549,0,0,0,2.5761932,0
2004/5/6 22:00,0.000161,0,0.016261,0,0.0236348,0,2.3871148,0
2004/5/6 22:15,0,0,0.017227,0,0,0,2.5289236,0
2004/5/6 22:30,0.051359,0,0.092253,0,7.5395012,0,13.5427404,0
2004/5/6 22:45,0.068908,0,0.056672,0,10.1156944,0,8.3194496,0
2004/5/6 23:00,0.05796,0,0,0,8.508528,0,0,0
2004/5/6 23:15,0.026565,0,0,0,3.899742,0,0,0
2004/5/6 23:30,0.023989,0,0,0,3.5215852,0,0,0
2004/5/6 23:45,0.022218,0,0,0,3.2616024,0,0,0
2004/5/7 0:00,0.018193,0,0,0,2.6707324,0,0,0
2004/5/7 0:15,0.037513,0,0,0,5.5069084,0,0,0
2004/5/7 0:30,0.022701,0,0,0,3.3325068,0,0,0
2004/5/7 0:45,0,0,0,0,0,0,0,0
2004/5/7 1:00,0,0,0,0,0,0,0,0
2004/5/7 1:15,0,0,0,0,0,0,0,0
2004/5/7 1:30,0,0,0,0,0,0,0,0
2004/5/7 1:45,0.005474,0,0.179676,0,0.8035832,0,26.3764368,0
2004/5/7 2:00,0,0,0,0,0,0,0,0
2004/5/7 2:15,0,0,0,0,0,0,0,0
2004/5/7 2:30,0,0,0,0,0,0,0,0
2004/5/7 2:45,0,0,0,0,0,0,0,0
2004/5/7 3:00,0,0,0,0,0,0,0,0
2004/5/7 3:15,0,0,0,0,0,0,0,0
2004/5/7 3:30,0,0,0,0,0,0,0,0
2004/5/7 3:45,0,0,0,0,0,0,0,0
2004/5/7 4:00,0,0,0,0,0,0,0,0
2004/5/7 4:15,0,0,0,0,0,0,0,0
2004/5/7 4:30,0,0,0,0,0,0,0,0
2004/5/7 4:45,0,0,0,0,0,0,0,0
2004/5/7 5:00,0,0,0,0,0,0,0,0
2004/5/7 5:15,0,0,0,0,0,0,0,0
2004/5/7 5:30,0,0,0,0,0,0,0,0
2004/5/7 5:45,0,0,0,0,0,0,0,0
2004/5/7 6:00,0,0,0,0,0,0,0,0
2004/5/7 6:15,0,0,0,0,0,0,0,0
2004/5/7 6:30,0,0,0.078246,0,0,0,11.4865128,0
2004/5/7 6:45,0.000161,0,0.021574,0,0.0236348,0,3.1670632,0
2004/5/7 7:00,0,0,0,0,0,0,0,0
2004/5/7 7:15,0,0,0,0,0,0,0,0
2004/5/7 7:30,0,0,0,0,0,0,0,0
2004/5/7 7:45,0,0,0,0,0,0,0,0
2004/5/7 8:00,0,0,0.039445,0,0,0,5.790526,0
2004/5/7 8:15,0,0,0,0,0,0,0,0
2004/5/7 8:30,0,0,0,0,0,0,0,0
2004/5/7 8:45,0,0,0,0,0,0,0,0
2004/5/7 9:00,0,0,0,0,0,0,0,0
2004/5/7 9:15,0,0,0,0,0,0,0,0
2004/5/7 9:30,0,0,0,0,0,0,0,0
2004/5/7 9:45,0,0,0,0,0,0,0,0
2004/5/7 10:00,0,0,0,0,0,0,0,0
2004/5/7 10:15,0,0,0,0,0,0,0,0
2004/5/7 10:30,0,0,0,0,0,0,0,0
2004/5/7 10:45,0,0,0,0,0,0,0,0
2004/5/7 11:00,0,0,0,0,0,0,0,0
2004/5/7 11:15,0,0,0,0,0,0,0,0
2004/5/7 11:30,0,0,0,0,0,0,0,0
2004/5/7 11:45,0,0,0,0,0,0,0,0
2004/5/7 12:00,0,0,0,0,0,0,0,0
2004/5/7 12:15,0,0,0,0,0,0,0,0
2004/5/7 12:30,0,0,0,0,0,0,0,0
2004/5/7 12:45,0,0,0,0,0,0,0,0
2004/5/7 13:00,0,0,0,0,0,0,0,0
2004/5/7 13:15,0,0,0,0,0,0,0,0
2004/5/7 13:30,0,0,0,0,0,0,0,0
2004/5/7 13:45,0,0,0,0,0,0,0,0
2004/5/7 14:00,0,0,0,0,0,0,0,0
2004/5/7 14:15,0,0,0,0,0,0,0,0
2004/5/7 14:30,0,0,0,0,0,0,0,0
2004/5/7 14:45,0,0,0,0,0,0,0,0
2004/5/7 15:00,0,0,0,0,0,0,0,0
2004/5/7 15:15,0,0,0,0,0,0,0,0
2004/5/7 15:30,0,0,0,0,0,0,0,0
2004/5/7 15:45,0,0,0,0,0,0,0,0
2004/5/7 16:00,0,0,0,0,0,0,0,0
2004/5/7 16:15,0,0,0,0,0,0,0,0
2004/5/7 16:30,0,0,0,0,0,0,0,0
2004/5/7 16:45,0,0,0,0,0,0,0,0
2004/5/7 17:00,0,0,0,0,0,0,0,0
2004/5/7 17:15,0,0,0,0,0,0,0,0
2004/5/7 17:30,0,0,0,0,0,0,0,0
2004/5/7 17:45,0,0,0,0,0,0,0,0
2004/5/7 18:00,0,0,0,0,0,0,0,0
2004/5/7 18:15,0,0,0,0,0,0,0,0
2004/5/7 18:30,0,0,0,0,0,0,0,0
2004/5/7 18:45,0,0,0,0,0,0,0,0
2004/5/7 19:00,0,0,0,0,0,0,0,0
2004/5/7 19:15,0,0,0,0,0,0,0,0
2004/5/7 19:30,0,0,0,0,0,0,0,0
2004/5/7 19:45,0,0,0,0,0,0,0,0
2004/5/7 20:00,0,0,0,0,0,0,0,0
2004/5/7 20:15,0,0,0,0,0,0,0,0
2004/5/7 20:30,0,0,0,0,0,0,0,0
2004/5/7 20:45,0,0,0,0,0,0,0,0
2004/5/7 21:00,0,0,0,0,0,0,0,0
2004/5/7 21:15,0,0,0,0,0,0,0,0
2004/5/7 21:30,0,0,0,0,0,0,0,0
2004/5/7 21:45,0,0,0,0,0,0,0,0
2004/5/7 22:00,0,0,0,0,0,0,0,0
2004/5/7 22:15,0,0,0,0,0,0,0,0
2004/5/7 22:30,0.071001,0,0,0,10.4229468,0,0,0
2004/5/7 22:45,0.051037,0,0,0,7.4922316,0,0,0
2004/5/7 23:00,0.06279,0,0,0,9.217572,0,0,0
2004/5/7 23:15,0.036547,0,0,0,5.3650996,0,0,0
2004/5/7 23:30,0,0,0,0,0,0,0,0
2004/5/7 23:45,0,0,0,0,0,0,0,0
2004/5/8 0:00,0,0,0,0,0,0,0,0
2004/5/8 0:15,0,0,0,0,0,0,0,0
2004/5/8 0:30,0,0,0,0,0,0,0,0
2004/5/8 0:45,0,0,0,0,0,0,0,0
2004/5/8 1:00,0,0,0,0,0,0,0,0
2004/5/8 1:15,0,0,0,0,0,0,0,0
2004/5/8 1:30,0,0,0,0,0,0,0,0
2004/5/8 1:45,0,0,0,0,0,0,0,0
2004/5/8 2:00,0.005152,0,0.113022,0,0.7563136,0,16.5916296,0
2004/5/8 2:15,0,0,0.019642,0,0,0,2.8834456,0
2004/5/8 2:30,0,0,0,0,0,0,0,0
2004/5/8 2:45,0.000161,0,0.018837,0,0.0236348,0,2.7652716,0
2004/5/8 3:00,0,0,0,0,0,0,0,0
2004/5/8 3:15,0,0,0,0,0,0,0,0
2004/5/8 3:30,0.000161,0,0.021091,0,0.0236348,0,3.0961588,0
2004/5/8 3:45,0,0,0,0,0,0,0,0
2004/5/8 4:00,0,0,0,0,0,0,0,0
2004/5/8 4:15,0,0,0.01932,0,0,0,2.836176,0
2004/5/8 4:30,0,0,0,0,0,0,0,0
2004/5/8 4:45,0,0,0,0,0,0,0,0
2004/5/8 5:00,0.000161,0,0.019642,0,0.0236348,0,2.8834456,0
2004/5/8 5:15,0,0,0,0,0,0,0,0
2004/5/8 5:30,0,0,0.019964,0,0,0,2.9307152,0
2004/5/8 5:45,0,0,0,0,0,0,0,0
2004/5/8 6:00,0,0,0,0,0,0,0,0
2004/5/8 6:15,0,0,0,0,0,0,0,0
2004/5/8 6:30,0,0,0.019964,0,0,0,2.9307152,0
2004/5/8 6:45,0.000161,0,0.273378,0,0.0236348,0,40.1318904,0
2004/5/8 7:00,0,0,0.107548,0,0,0,15.7880464,0
2004/5/8 7:15,0,0,0.105777,0,0,0,15.5280636,0
2004/5/8 7:30,0,0,0,0,0,0,0,0
2004/5/8 7:45,0,0,0,0,0,0,0,0
2004/5/8 8:00,0,0,0,0,0,0,0,0
2004/5/8 8:15,0,0,0.065688,0,0,0,9.6429984,0